Regional Weather Roundup
Issued by NWS

Home | Current Version | Previous Version | Graphics & Text | Print | Product List | Glossary On
Versions: 1 2 3 4 5 6 7 8 9 10 11 12 13 14 15 16 17 18 19 20 21 22 23 24 25 26 27 28 29 30 31 32 33 34 35 36 37 38 39 40 41 42 43 44 45 46 47 48 49 50
000
ASUS44 KMEG 051110
RWRTN
TENNESSEE HOURLY STATE WEATHER ROUNDUP
NATIONAL WEATHER SERVICE MEMPHIS TN
500 AM CST THU MAR 05 2015

TNZ002-004-019-021-049-052-054-088>092-051200-
WEST TENNESSEE

CITY           SKY/WX    TMP DP  RH WIND       PRES   REMARKS
MEMPHIS INTL   LGT SNOW  21  16  81 N17G25    30.31S FOG     WCI   7
NWS MEMPHIS      N/A     20 N/A N/A MISG        N/A
JACKSON        CLOUDY    20  15  81 N15       30.31R HAZE    WCI   6
DYERSBURG      CLOUDY    18   5  57 N8G18     30.38R WCI   7
UNION CITY     CLOUDY    18  16  93 N14       30.34R WCI   4
PARIS          CLOUDY    16  12  86 N13       30.28S WCI   2
LEXINGTON      CLOUDY    19  18  93 N10       30.24R WCI   8
SAVANNAH       CLOUDY    21  19  93 N20       30.21R WCI   6
$$

TNZ008-025-027-028-033-062-065-066-051200-
NORTH MIDDLE TENNESSEE

CITY           SKY/WX    TMP DP  RH WIND       PRES   REMARKS
NASHVILLE      LGT SNOW  21  19  93 N13G21    30.21R FOG     WCI   9
CLARKSVILLE    FOG       18  16  92 N15       30.28R VSB 1   WCI   4
SMYRNA         MIX PCPN  24  22  92 CALM      30.21R
COOKEVILLE     CLOUDY    28  27  93 N9        30.11R WCI  20
CROSSVILLE     FRZ RAIN  31  28  89 N14       30.01R WCI  21
$$

TNZ061-075-076-078-094-096-097-051200-
SOUTH MIDDLE TENNESSEE

CITY           SKY/WX    TMP DP  RH WIND       PRES   REMARKS
FAYETTEVILLE   CLOUDY    27  25  93 N8          N/A  WCI  18
TULLAHOMA      CLOUDY    27  27 100 N12         N/A  WCI  16
WINCHESTER     CLOUDY    30  30 100 N9        30.05R WCI  22
MCMINNVILLE    CLOUDY    30  30 100 N10       30.09R WCI  21
COLUMBIA         N/A    N/A N/A N/A N10       30.16R
SHELBYVILLE    CLOUDY    27  27 100 N12       30.13F WCI  16
$$

TNZ017-018-042-046-047-051200-
NORTHEAST TENNESSEE

CITY           SKY/WX    TMP DP  RH WIND       PRES   REMARKS
TRI CITIES     HVY RAIN  35  33  92 N3        30.03R FOG
ELIZABETHTON   HVY RAIN  36  34  93 S6        29.99R WCI  31
$$

TNZ012-013-036-069-073-074-051200-
CENTRAL EAST TENNESSEE

CITY           SKY/WX    TMP DP  RH WIND       PRES   REMARKS
KNOXVILLE      HVY RAIN  36  34  92 N8        30.00F FOG     WCI  30
OAK RIDGE      LGT RAIN  37  34  89 N5        30.04R WCI  33
GATLINBURG     CLOUDY    36  36 100 NE3       29.98F
MORRISTOWN     PTSUNNY   36  36 100 NE3       29.99F
$$

TNZ083-085-099-051200-
SOUTHEAST TENNESSEE

CITY           SKY/WX    TMP DP  RH WIND       PRES   REMARKS
CHATTANOOGA    LGT RAIN  39  36  89 N13       30.02R WCI  31
$$

SKY/WX REPORTED AS FAIR MEANS FEW OR NO CLOUDS BELOW
12 THOUSAND FEET.




USA.gov is the U.S. government's official web portal to all federal, state and local government web resources and services.